Weather Roundup
Issued by NWS Springfield, MO

Home | Current Version | Previous Version | Text Only | Print | Product List | Glossary On
Versions: 1 2 3 4 5 6 7 8 9 10 11 12 13 14 15 16 17 18 19 20 21 22 23 24 25 26 27 28 29 30 31 32 33 34 35 36 37 38 39 40 41 42 43 44 45 46 47 48 49 50
084
NZUS99 KSGF 280907
HRRSGF

HOURLY WEATHER
NATIONAL WEATHER SERVICE SPRINGFIELD MO
400 AM CDT WED SEP 28 2016

......SGF CWA......

CITY           SKY/WX    TMP DP  RH WIND       PRES   REMARKS
SPRINGFIELD    CLEAR     62  48  60 SW9       29.90F
JOPLIN         CLEAR     64  50  60 SW12      29.91F
WEST PLAINS    CLEAR     56  49  77 SW6       29.93F
ROLLA          CLEAR     56  50  80 SW9       29.84F
OSAGE BEACH    CLEAR     62  52  69 SW5       29.86F
BRANSON        CLEAR     63  45  51 SW6       29.94F

......SURROUNDING SGF CWA......

CITY           SKY/WX    TMP DP  RH WIND       PRES   REMARKS
CHANUTE        CLEAR     60  52  74 SW6       29.89S
PARSONS        CLEAR     52  50  93 CALM      29.91F
COFFEYVILLE    CLEAR     58  51  78 S6        29.91F
EMPORIA        CLEAR     62  55  77 W8        29.89S
GROVE OK       CLEAR     61  52  72 S3        29.95F
ROGERS AR      CLEAR     59  47  64 SW8       29.97F
SILOAM SPRINGS CLEAR     57  41  54 S6        29.98S
HARRISON AR    CLEAR     64  45  49 W7        29.95F
NEAR YELLVILLE CLEAR     61  46  59 S3        29.91F

......KANSAS AND MISSOURI......

CITY           SKY/WX    TMP DP  RH WIND       PRES   REMARKS
KANSAS CTY INT CLEAR     59  53  80 NW7       29.87S
DOWNTOWN KC    CLEAR     63  55  75 CALM      29.86S
COLUMBIA       CLOUDY    61  55  81 W8        29.82F
SEDALIA        CLEAR     62  54  74 SW7       29.85F
ST JOSEPH      CLEAR     53  52  96 N7        29.88R
ST LOUIS       PTCLDY    64  53  67 W7        29.79F
SPIRIT OF STL  CLEAR     61  54  77 W8        29.79S
KIRKSVILLE     CLOUDY    57  46  66 N10       29.85R
WICHITA        CLEAR     58  54  86 CALM      29.91F
TOPEKA         CLEAR     58  54  86 CALM      29.88S
OLATHE         CLEAR     61  54  77 NW6       29.87F

......TENNESSEE......

CITY           SKY/WX    TMP DP  RH WIND       PRES   REMARKS
MEMPHIS        PTCLDY    59  50  72 CALM      29.94S
NASHVILLE      CLEAR     52  48  86 S3        29.93S

......ARKANSAS.......

CITY           SKY/WX    TMP DP  RH WIND       PRES   REMARKS
FAYETTEVILLE   CLEAR     50  49  96 S6        29.98F
FT SMITH       CLEAR     56  49  77 CALM      29.97S
LITTLE ROCK    CLEAR     58  53  84 W6        29.95F

......OKLAHOMA.......

CITY           SKY/WX    TMP DP  RH WIND       PRES   REMARKS
TULSA          CLEAR     65  50  58 S8        29.93S
PONCA CITY     CLEAR     60  50  69 SW6       29.94F
MCALESTER      PTCLDY    51  48  89 CALM      29.99F
OKLAHOMA CITY  PTCLDY    57  50  77 SW3       29.99F

......IOWA............

CITY           SKY/WX    TMP DP  RH WIND       PRES   REMARKS
DES MOINES     MOCLDY    56  43  61 N15       29.91R
QUAD CITIES    CLOUDY    55  44  66 N10       29.82R

......ILLINOIS........

CITY           SKY/WX    TMP DP  RH WIND       PRES   REMARKS
QUINCY         CLOUDY    58  50  75 NW8       29.79S
CHICAGO        LGT RAIN  53  45  74 NW3       29.79R




USA.gov is the U.S. government's official web portal to all federal, state and local government web resources and services.